"2010-08-29 00:00:00",112621,5.259,42.38,1.615,0.27,23.08,110.5109,26.21,27.11,21.53,0,111.2,13.11,27.05,4.4
"2010-08-29 00:00:30",112622,4.322,35.22,3.628,0.617,23.14,110.5038,26.19,27.08,21.2,0,111.2,13.11,27.03,357.2
"2010-08-29 00:01:00",112623,4.818,35.49,5.924,0.628,23.23,110.4794,26.13,27.05,21.18,0,111.2,13.11,26.97,357.5
"2010-08-29 00:01:30",112624,4.442,35.07,3.672,0.652,23.15,110.4778,26.12,27.03,20.99,0,111.2,13.11,26.97,357.1
"2010-08-29 00:02:00",112625,5.135,40.35,5.51,0.5,23.17,110.4781,26.12,27.02,21.07,0,111.2,13.11,26.97,2.3
"2010-08-29 00:02:30",112626,4.93,36.73,1.514,0.25,23.09,110.4779,26.12,27.01,21.72,0,111.2,13.11,26.97,358.7
"2010-08-29 00:03:00",112627,5.02,36.17,2.876,0.423,23.22,110.454,26.06,26.98,21.42,0,111.2,13.11,26.90,358.2
"2010-08-29 00:03:30",112628,4.04,28.7,5.408,0.713,23.13,110.4487,26.05,26.97,21.66,0,111.2,13.11,26.89,350.7
"2010-08-29 00:04:00",112629,3.68,32.4,5.558,0.517,23.1,110.4447,26.04,26.95,21.68,0,111.2,13.12,26.88,354.4
"2010-08-29 00:04:30",112630,3.638,42.19,2.576,0.258,23.24,110.4447,26.04,26.92,21.04,0,111.2,13.13,26.88,4.2
"2010-08-29 00:05:00",112631,3.249,34.31,4.432,0.651,23.23,110.4447,26.04,26.94,20.93,0,111.2,13.13,26.88,356.3
"2010-08-29 00:05:30",112632,4.262,31.36,5.746,0.42,23.12,110.4453,26.04,26.94,21.1,0,111.2,13.12,26.88,353.4
"2010-08-29 00:06:00",112633,4.054,31.29,5.332,0.405,23.16,110.4447,26.04,26.93,21.16,0,111.2,13.12,26.88,353.3
"2010-08-29 00:06:30",112634,3.728,34.25,3.761,0.511,23.15,110.4447,26.04,26.92,21.03,0,111.2,13.11,26.88,356.2
"2010-08-29 00:07:00",112635,3.479,28.82,2.854,0.427,23.16,110.4447,26.04,26.91,21.11,0,111.3,13.11,26.88,350.8
"2010-08-29 00:07:30",112636,4.042,31.98,2.25,0.367,23.17,110.4447,26.04,26.9,21.06,0,111.2,13.11,26.88,354.0
"2010-08-29 00:08:00",112637,4.585,33.27,2.392,0.458,23.1,110.4425,26.03,26.88,21.22,0,111.3,13.11,26.87,355.3
"2010-08-29 00:08:30",112638,4.131,31.93,2.541,0.561,23.08,110.4192,25.97,26.87,21.41,0,111.3,13.11,26.81,353.9
"2010-08-29 00:09:00",112639,4.322,32.75,2.843,0.576,23.13,110.411,25.95,26.87,21.41,0,111.2,13.11,26.79,354.8
"2010-08-29 00:09:30",112640,3.967,31,2.37,0.619,23.16,110.411,25.95,26.85,21.27,0,111.3,13.11,26.79,353.0
"2010-08-29 00:10:00",112641,4.488,34.55,6.216,0.424,23.18,110.411,25.95,26.83,21.39,0,111.2,13.11,26.79,356.5
"2010-08-29 00:10:30",112642,4.136,32.65,4.779,0.836,23.14,110.411,25.95,26.83,21.49,0,111.2,13.12,26.79,354.6
"2010-08-29 00:11:00",112643,4.469,34.31,5.585,0.38,23.22,110.4105,25.95,26.83,21.24,0,111.2,13.12,26.79,356.3
"2010-08-29 00:11:30",112644,4.48,34.04,2.136,0.344,23.06,110.411,25.95,26.82,21.46,0,111.2,13.13,26.79,356.0
"2010-08-29 00:12:00",112645,3.987,33.09,1.439,0.375,23.14,110.4035,25.93,26.81,21.47,0,111.2,13.13,26.77,355.1
"2010-08-29 00:12:30",112646,4.125,33.52,2.61,0.658,23.11,110.3897,25.9,26.8,21.43,0,111.2,13.13,26.74,355.5
"2010-08-29 00:13:00",112647,4.266,31.65,3.575,0.512,23.16,110.3858,25.89,26.78,21.36,0,111.2,13.13,26.73,353.6
"2010-08-29 00:13:30",112648,3.722,28.2,2.355,0.354,23.17,110.3861,25.89,26.78,21.22,0,111.2,13.13,26.73,350.2
"2010-08-29 00:14:00",112649,4.675,31.35,2.12,0.421,23.14,110.3858,25.89,26.78,21.1,0,111.2,13.13,26.73,353.4
"2010-08-29 00:14:30",112650,5.63,34.32,1.652,0.321,23.16,110.3852,25.88,26.79,21.11,0,111.2,13.13,26.73,356.3
"2010-08-29 00:15:00",112651,4.72,29.86,4.537,0.501,23.21,110.3838,25.88,26.78,21.34,0,111.2,13.13,26.72,351.9
"2010-08-29 00:15:30",112652,4.929,38,3.415,0.323,23.27,110.3908,25.9,26.78,21.04,0,111.2,13.13,26.74,0.0
"2010-08-29 00:16:00",112653,5.28,37.26,3.153,0.282,23.14,110.4074,25.94,26.79,21.13,0,111.2,13.13,26.78,359.3
"2010-08-29 00:16:30",112654,4.968,34.28,2.159,0.332,23.21,110.4046,25.93,26.78,21.13,0,111.2,13.13,26.78,356.3
"2010-08-29 00:17:00",112655,5.312,35.68,1.343,0.274,23.15,110.4026,25.93,26.81,21.17,0,111.2,13.13,26.77,357.7
"2010-08-29 00:17:30",112656,5.393,39.06,1.666,0.167,23.18,110.3979,25.92,26.8,21.19,0,111.2,13.13,26.76,1.1
"2010-08-29 00:18:00",112657,5.227,39.39,1.745,0.117,23.21,110.4077,25.94,26.81,21.11,0,111.2,13.13,26.78,1.4
"2010-08-29 00:18:30",112658,4.823,38.35,3.48,0.314,23.22,110.4108,25.95,26.8,21.13,0,111.2,13.13,26.79,0.3
"2010-08-29 00:19:00",112659,4.896,39.97,5.229,0.356,23.22,110.411,25.95,26.81,21.13,0,111.2,13.13,26.79,2.0
"2010-08-29 00:19:30",112660,4.717,38.46,2.423,0.283,23.2,110.411,25.95,26.82,21.09,0,111.2,13.13,26.79,0.5
"2010-08-29 00:20:00",112661,4.756,37.72,1.601,0.148,23.16,110.411,25.95,26.83,21.26,0,111.2,13.13,26.79,359.7
"2010-08-29 00:20:30",112662,4.657,40.34,1.808,0.104,23.15,110.4105,25.95,26.82,21.22,0,111.2,13.13,26.79,2.3
"2010-08-29 00:21:00",112663,4.606,41.14,1.597,0.109,23.2,110.4108,25.95,26.82,21.19,0,111.2,13.13,26.79,3.1
"2010-08-29 00:21:30",112664,4.822,37.65,3.267,0.329,23.18,110.411,25.95,26.82,21.15,0,111.2,13.13,26.79,359.6
"2010-08-29 00:22:00",112665,4.619,34.98,3.09,0.392,23.17,110.4099,25.95,26.83,21.07,0,111.2,13.13,26.79,357.0
"2010-08-29 00:22:30",112666,4.455,37.96,4.739,0.626,23.15,110.3998,25.92,26.82,21.09,0,111.2,13.13,26.76,360.0
"2010-08-29 00:23:00",112667,4.583,32.8,3.987,0.487,23.21,110.3984,25.92,26.83,21.01,0,111.2,13.13,26.76,354.8
"2010-08-29 00:23:30",112668,4.769,40.56,3.372,0.274,23.24,110.3995,25.92,26.82,21,0,111.2,13.13,26.76,2.6
"2010-08-29 00:24:00",112669,4.541,36.51,5.105,0.553,23.26,110.4057,25.94,26.81,20.97,0,111.2,13.13,26.78,358.5
"2010-08-29 00:24:30",112670,4.22,34.98,1.684,0.395,23.27,110.4108,25.95,26.81,20.95,0,111.2,13.12,26.79,357.0
"2010-08-29 00:25:00",112671,4.296,34.11,1.929,0.614,23.26,110.411,25.95,26.83,21.01,0,111.2,13.13,26.79,356.1
"2010-08-29 00:25:30",112672,3.957,32.82,1.729,0.487,23.27,110.412,25.95,26.83,20.97,0,111.2,13.12,26.80,354.8
"2010-08-29 00:26:00",112673,3.938,33.26,2.679,0.524,23.29,110.4126,25.95,26.85,20.94,0,111.2,13.13,26.80,355.3
"2010-08-29 00:26:30",112674,3.852,34.14,2.009,0.482,23.29,110.4129,25.96,26.84,20.97,0,111.2,13.13,26.80,356.1
"2010-08-29 00:27:00",112675,4.107,36.49,1.318,0.347,23.24,110.4172,25.97,26.86,21.1,0,111.2,13.13,26.81,358.5
"2010-08-29 00:27:30",112676,4.628,36.29,0.858,0.203,23.18,110.4166,25.97,26.84,21.43,0,111.2,13.13,26.81,358.3
"2010-08-29 00:28:00",112677,4.302,38.27,1.851,0.153,23.19,110.4142,25.96,26.84,21.31,0,111.2,13.13,26.80,0.3
"2010-08-29 00:28:30",112678,3.735,32.2,2.621,0.469,23.24,110.4116,25.95,26.84,21.22,0,111.2,13.13,26.79,354.2
"2010-08-29 00:29:00",112679,4.316,35.66,2.131,0.361,23.28,110.4095,25.95,26.82,21.15,0,111.2,13.13,26.79,357.7
"2010-08-29 00:29:30",112680,3.791,35.21,3.312,0.402,23.28,110.4198,25.97,26.84,21.04,0,111.2,13.13,26.82,357.2
"2010-08-29 00:30:00",112681,4.177,34.98,2.734,0.484,23.3,110.4301,26,26.84,21.03,0,111.2,13.13,26.84,357.0
"2010-08-29 00:30:30",112682,4.615,34.71,1.362,0.272,23.22,110.4308,26,26.83,21.1,0,111.2,13.13,26.84,356.7
"2010-08-29 00:31:00",112683,4.022,32.9,2.15,0.469,23.25,110.4167,25.97,26.82,21.05,0,111.2,13.13,26.81,354.9
"2010-08-29 00:31:30",112684,3.845,34.25,1.909,0.414,23.32,110.4132,25.96,26.83,20.96,0,111.2,13.13,26.80,356.2
"2010-08-29 00:32:00",112685,3.857,37.34,2.692,0.226,23.33,110.4274,25.99,26.83,20.84,0,111.2,13.13,26.84,359.3
"2010-08-29 00:32:30",112686,4.244,34.98,2.44,0.52,23.35,110.4378,26.02,26.84,20.78,0,111.2,13.13,26.86,357.0
"2010-08-29 00:33:00",112687,4.334,35.24,1.286,0.257,23.31,110.4384,26.02,26.84,20.74,0,111.2,13.13,26.86,357.2
"2010-08-29 00:33:30",112688,4.143,34.11,2.129,0.442,23.28,110.439,26.02,26.86,20.72,0,111.2,13.14,26.87,356.1
"2010-08-29 00:34:00",112689,4.041,33.52,1.583,0.377,23.3,110.439,26.02,26.87,20.7,0,111.2,13.14,26.87,355.5
"2010-08-29 00:34:30",112690,4.335,33.49,1.971,0.427,23.28,110.439,26.02,26.85,20.69,0,111.2,13.13,26.87,355.5
"2010-08-29 00:35:00",112691,4.21,32.82,1.531,0.378,23.28,110.4393,26.02,26.85,20.7,0,111.2,13.14,26.87,354.8
"2010-08-29 00:35:30",112692,4.073,32.65,1.725,0.381,23.29,110.4405,26.03,26.86,20.68,0,111.2,13.14,26.87,354.6
"2010-08-29 00:36:00",112693,3.941,31.82,1.627,0.312,23.27,110.4393,26.02,26.87,20.77,0,111.2,13.14,26.87,353.8
"2010-08-29 00:36:30",112694,3.924,32.93,1.456,0.346,23.3,110.4399,26.02,26.86,20.78,0,111.2,13.14,26.87,354.9
"2010-08-29 00:37:00",112695,3.703,31.77,2.506,0.439,23.33,110.4393,26.02,26.87,20.7,0,111.2,13.14,26.87,353.8
"2010-08-29 00:37:30",112696,3.55,31.53,2.064,0.546,23.32,110.4396,26.02,26.87,20.67,0,111.2,13.14,26.87,353.5
"2010-08-29 00:38:00",112697,2.852,28.01,1.968,0.205,23.32,110.4405,26.03,26.88,20.63,0,111.2,13.14,26.87,350.0
"2010-08-29 00:38:30",112698,3.461,31.69,2.377,0.323,23.36,110.4411,26.03,26.88,20.63,0,111.2,13.14,26.87,353.7
"2010-08-29 00:39:00",112699,3.57,32.49,1.424,0.192,23.36,110.4433,26.03,26.89,20.59,0,111.2,13.14,26.88,354.5
"2010-08-29 00:39:30",112700,3.34,32.01,1.728,0.274,23.39,110.4475,26.04,26.9,20.56,0,111.2,13.13,26.89,354.0
"2010-08-29 00:40:00",112701,3.405,32.59,2.657,0.353,23.37,110.4533,26.06,26.91,20.58,0,111.2,13.13,26.90,354.6
"2010-08-29 00:40:30",112702,3.856,35.88,1.873,0.271,23.42,110.4674,26.1,26.92,20.51,0,111.2,13.13,26.94,357.9
"2010-08-29 00:41:00",112703,3.768,34.4,1.486,0.253,23.43,110.4779,26.12,26.92,20.52,0,111.2,13.13,26.97,356.4
"2010-08-29 00:41:30",112704,4.274,35.16,2.007,0.352,23.45,110.4813,26.13,26.94,20.54,0,111.2,13.13,26.97,357.2
"2010-08-29 00:42:00",112705,4.099,34.63,1.759,0.295,23.47,110.4813,26.13,26.95,20.47,0,111.2,13.13,26.97,356.6
"2010-08-29 00:42:30",112706,3.934,34.39,1.453,0.232,23.48,110.482,26.13,26.94,20.45,0,111.2,13.13,26.98,356.4
"2010-08-29 00:43:00",112707,4.213,34.62,1.913,0.305,23.41,110.482,26.13,26.96,20.47,0,111.2,13.13,26.98,356.6
"2010-08-29 00:43:30",112708,3.501,31.74,1.943,0.516,23.42,110.482,26.13,26.97,20.47,0,111.2,13.13,26.98,353.7
"2010-08-29 00:44:00",112709,3.154,31.51,2.337,0.304,23.45,110.482,26.13,26.97,20.44,0,111.2,13.13,26.98,353.5
"2010-08-29 00:44:30",112710,3.581,34.19,1.939,0.324,23.48,110.482,26.13,26.99,20.38,0,111.2,13.13,26.98,356.2
"2010-08-29 00:45:00",112711,3.517,33.82,2.243,0.378,23.43,110.482,26.13,26.98,20.38,0,111.2,13.13,26.98,355.8
"2010-08-29 00:45:30",112712,3.031,30.49,1.424,0.205,23.45,110.4825,26.13,26.99,20.33,0,111.2,13.14,26.98,352.5
"2010-08-29 00:46:00",112713,3.161,31.75,2.31,0.304,23.47,110.4856,26.14,26.99,20.29,0,111.2,13.14,26.99,353.8
"2010-08-29 00:46:30",112714,3.278,32.6,2.25,0.43,23.48,110.4881,26.15,27,20.27,0,111.2,13.14,26.99,354.6
"2010-08-29 00:47:00",112715,3.762,34.26,1.69,0.301,23.48,110.4929,26.16,27.03,20.26,0,111.2,13.14,27.00,356.3
"2010-08-29 00:47:30",112716,3.55,32.94,2.492,0.419,23.5,110.498,26.17,27.01,20.22,0,111.2,13.14,27.02,354.9
"2010-08-29 00:48:00",112717,3.352,31.77,1.773,0.336,23.47,110.4991,26.18,27.03,20.26,0,111.2,13.14,27.02,353.8
"2010-08-29 00:48:30",112718,3.437,32.81,1.393,0.35,23.47,110.496,26.17,27.03,20.27,0,111.2,13.14,27.01,354.8
"2010-08-29 00:49:00",112719,3.82,33.46,1.942,0.369,23.46,110.4971,26.17,27.01,20.25,0,111.2,13.14,27.02,355.5
"2010-08-29 00:49:30",112720,3.72,33.19,1.354,0.261,23.46,110.4938,26.16,27.01,20.26,0,111.2,13.14,27.01,355.2
"2010-08-29 00:50:00",112721,3.556,33.36,1.316,0.236,23.5,110.4949,26.17,27.02,20.23,0,111.2,13.14,27.01,355.4
"2010-08-29 00:50:30",112722,3.416,32.57,1.493,0.284,23.48,110.4938,26.16,27.03,20.22,0,111.2,13.14,27.01,354.6
"2010-08-29 00:51:00",112723,3.185,31.28,1.535,0.255,23.46,110.4912,26.16,27.03,20.21,0,111.2,13.14,27.00,353.3
"2010-08-29 00:51:30",112724,3.283,31.75,1.558,0.252,23.49,110.4912,26.16,27.03,20.18,0,111.2,13.14,27.00,353.8
"2010-08-29 00:52:00",112725,3.329,32.3,1.818,0.248,23.51,110.4968,26.17,27.03,20.13,0,111.2,13.14,27.01,354.3
"2010-08-29 00:52:30",112726,3.363,33.13,1.606,0.344,23.51,110.5112,26.21,27.04,20.11,0,111.2,13.14,27.05,355.1
"2010-08-29 00:53:00",112727,3.327,33.24,1.601,0.254,23.52,110.5157,26.22,27.05,20.08,0,111.2,13.14,27.06,355.2
"2010-08-29 00:53:30",112728,3.416,32.56,1.384,0.311,23.52,110.5157,26.22,27.05,20.02,0,111.2,13.14,27.06,354.6
"2010-08-29 00:54:00",112729,3.277,32.48,1.259,0.237,23.52,110.5157,26.22,27.07,19.99,0,111.2,13.14,27.06,354.5
"2010-08-29 00:54:30",112730,3.633,34.1,1.099,0.239,23.5,110.5157,26.22,27.08,20,0,111.2,13.14,27.06,356.1
"2010-08-29 00:55:00",112731,3.545,32.97,1.917,0.309,23.48,110.5157,26.22,27.08,20.02,0,111.2,13.14,27.06,355.0
"2010-08-29 00:55:30",112732,3.535,32.71,1.506,0.287,23.46,110.5157,26.22,27.07,20.07,0,111.2,13.14,27.06,354.7
"2010-08-29 00:56:00",112733,3.403,32.34,2.09,0.322,23.44,110.5157,26.22,27.08,20.1,0,111.2,13.14,27.06,354.3
"2010-08-29 00:56:30",112734,3.647,32.93,1.434,0.278,23.46,110.5126,26.21,27.06,20.13,0,111.2,13.14,27.06,354.9
"2010-08-29 00:57:00",112735,3.611,32.88,1.356,0.283,23.48,110.5008,26.18,27.06,20.13,0,111.2,13.14,27.02,354.9
"2010-08-29 00:57:30",112736,3.956,34.04,1.135,0.191,23.46,110.4926,26.16,27.05,20.15,0,111.2,13.14,27.00,356.0
"2010-08-29 00:58:00",112737,3.831,33.99,1.6,0.299,23.49,110.491,26.16,27.05,20.12,0,111.2,13.13,27.00,356.0
"2010-08-29 00:58:30",112738,3.987,33.7,2.019,0.389,23.43,110.4865,26.14,27.04,20.2,0,111.2,13.13,26.99,355.7
"2010-08-29 00:59:00",112739,4.215,34.29,1.606,0.343,23.44,110.4823,26.13,27.02,20.25,0,111.2,13.13,26.98,356.3
"2010-08-29 00:59:30",112740,3.816,32.52,1.46,0.346,23.4,110.482,26.13,27.01,20.32,0,111.2,13.13,26.98,354.5
"2010-08-29 01:00:00",112741,3.527,31.15,2.14,0.29,23.41,110.482,26.13,27,20.32,0,111.2,13.13,26.98,353.1
"2010-08-29 01:00:30",112742,3.509,30.35,2.042,0.283,23.38,110.4718,26.11,27,20.37,0,111.2,13.13,26.95,352.4
"2010-08-29 01:01:00",112743,3.439,30.23,1.573,0.21,23.4,110.4575,26.07,26.98,20.33,0,111.2,13.13,26.91,352.2
"2010-08-29 01:01:30",112744,3.579,30.82,1.258,0.231,23.35,110.4499,26.05,26.95,20.4,0,111.2,13.13,26.89,352.8
"2010-08-29 01:02:00",112745,3.597,31.39,1.324,0.263,23.35,110.4483,26.05,26.97,20.46,0,111.2,13.14,26.89,353.4
"2010-08-29 01:02:30",112746,3.645,31.72,1.838,0.363,23.39,110.4483,26.05,26.94,20.41,0,111.1,13.14,26.89,353.7
"2010-08-29 01:03:00",112747,3.394,30.51,1.394,0.207,23.39,110.4483,26.05,26.94,20.44,0,111.2,13.14,26.89,352.5
"2010-08-29 01:03:30",112748,3.54,31.51,1.295,0.22,23.47,110.4483,26.05,26.94,20.38,0,111.2,13.14,26.89,353.5
"2010-08-29 01:04:00",112749,3.534,30.78,1.143,0.26,23.39,110.4483,26.05,26.93,20.51,0,111.2,13.14,26.89,352.8
"2010-08-29 01:04:30",112750,3.455,30.57,1.589,0.252,23.38,110.4483,26.05,26.92,20.57,0,111.1,13.14,26.89,352.6
"2010-08-29 01:05:00",112751,3.437,30.8,2.087,0.344,23.36,110.4471,26.04,26.91,20.62,0,111.1,13.14,26.89,352.8
"2010-08-29 01:05:30",112752,3.234,29.28,1.89,0.197,23.38,110.4443,26.04,26.9,20.61,0,111.2,13.14,26.88,351.3
"2010-08-29 01:06:00",112753,3.163,29.09,1.78,0.204,23.38,110.439,26.02,26.91,20.58,0,111.1,13.14,26.87,351.1
"2010-08-29 01:06:30",112754,3.08,28.57,1.398,0.133,23.35,110.43,26,26.91,20.67,0,111.1,13.14,26.84,350.6
"2010-08-29 01:07:00",112755,3.034,27.96,1.824,0.133,23.4,110.4238,25.98,26.89,20.61,0,111.1,13.14,26.83,350.0
"2010-08-29 01:07:30",112756,2.906,27.42,1.302,0.15,23.38,110.423,25.98,26.9,20.59,0,111.1,13.14,26.82,349.4
"2010-08-29 01:08:00",112757,2.89,27.8,1.876,0.178,23.39,110.4241,25.98,26.87,20.57,0,111.1,13.14,26.83,349.8
"2010-08-29 01:08:30",112758,3.044,26.65,2.093,0.225,23.35,110.4238,25.98,26.89,20.6,0,111.1,13.14,26.83,348.6
"2010-08-29 01:09:00",112759,3.125,25.48,2.518,0.262,23.4,110.4241,25.98,26.89,20.56,0,111.1,13.14,26.83,347.5
"2010-08-29 01:09:30",112760,3.625,24.38,1.244,0.26,23.3,110.4241,25.98,26.89,20.61,0,111.1,13.14,26.83,346.4
"2010-08-29 01:10:00",112761,3.684,24.33,1.485,0.155,23.26,110.4193,25.97,26.89,20.66,0,111.1,13.14,26.81,346.3
"2010-08-29 01:10:30",112762,3.854,24.26,1.282,0.181,23.24,110.4151,25.96,26.87,20.66,0,111.2,13.14,26.80,346.3
"2010-08-29 01:11:00",112763,3.981,25.1,1.411,0.145,23.18,110.4146,25.96,26.86,20.8,0,111.2,13.14,26.80,347.1
"2010-08-29 01:11:30",112764,4.029,25.1,1.364,0.181,23.17,110.4095,25.95,26.85,20.98,0,111.1,13.14,26.79,347.1
"2010-08-29 01:12:00",112765,4.195,23.25,1.358,0.214,23.15,110.3865,25.89,26.83,21.05,0,111.1,13.14,26.73,345.2
"2010-08-29 01:12:30",112766,4.281,22.45,1.368,0.21,23.11,110.3809,25.87,26.79,21.18,0,111.1,13.14,26.72,344.5
"2010-08-29 01:13:00",112767,4.413,21.76,1.229,0.158,23.06,110.3803,25.87,26.78,21.22,0,111.1,13.14,26.71,343.8
"2010-08-29 01:13:30",112768,4.619,20.93,1.355,0.078,23.01,110.3584,25.82,26.76,21.5,0,111.1,13.14,26.66,342.9
"2010-08-29 01:14:00",112769,4.578,21.12,1.051,0.093,23.05,110.3472,25.79,26.73,21.46,0,111.1,13.14,26.63,343.1
"2010-08-29 01:14:30",112770,4.485,20.82,1.407,0.132,23.04,110.3472,25.79,26.71,21.57,0,111.1,13.14,26.63,342.8
"2010-08-29 01:15:00",112771,4.4,21.06,1.019,0.18,23.08,110.3466,25.79,26.71,21.63,0,111.1,13.14,26.63,343.1
"2010-08-29 01:15:30",112772,4.152,20.9,1.765,0.221,23.14,110.3337,25.75,26.7,21.56,0,111.1,13.14,26.59,342.9
"2010-08-29 01:16:00",112773,3.998,19.58,1.434,0.187,23.14,110.3236,25.73,26.69,21.59,0,111.1,13.14,26.57,341.6
"2010-08-29 01:16:30",112774,4.006,19.7,1.108,0.13,23.18,110.3208,25.72,26.67,21.6,0,111.1,13.14,26.56,341.7
"2010-08-29 01:17:00",112775,3.883,19.77,1.244,0.134,23.21,110.3177,25.71,26.65,21.57,0,111.1,13.14,26.55,341.8
"2010-08-29 01:17:30",112776,3.635,22.81,1.502,0.184,23.24,110.3166,25.71,26.66,21.55,0,111.1,13.14,26.55,344.8
"2010-08-29 01:18:00",112777,3.535,23.38,1.481,0.164,23.2,110.3151,25.7,26.65,21.58,0,111.1,13.14,26.55,345.4
"2010-08-29 01:18:30",112778,3.655,25.05,1.286,0.194,23.22,110.3143,25.7,26.64,21.61,0,111.1,13.14,26.54,347.0
"2010-08-29 01:19:00",112779,3.815,26.28,1.199,0.162,23.24,110.3137,25.7,26.63,21.53,0,111.1,13.14,26.54,348.3
"2010-08-29 01:19:30",112780,3.732,27.42,1.027,0.116,23.25,110.3172,25.71,26.64,21.44,0,111.1,13.14,26.55,349.4
"2010-08-29 01:20:00",112781,3.619,27.29,1.03,0.128,23.24,110.3215,25.72,26.63,21.39,0,111.1,13.14,26.56,349.3
"2010-08-29 01:20:30",112782,3.414,27.94,0.867,0.177,23.26,110.3296,25.74,26.63,21.3,0,111.1,13.14,26.58,349.9
"2010-08-29 01:21:00",112783,3.26,26.98,1.014,0.109,23.26,110.3435,25.78,26.64,21.31,0,111.1,13.14,26.62,349.0
"2010-08-29 01:21:30",112784,3.29,26.98,1.236,0.092,23.27,110.3524,25.8,26.64,21.37,0,111.1,13.14,26.64,349.0
"2010-08-29 01:22:00",112785,3.46,25.46,1.468,0.19,23.29,110.3531,25.8,26.65,21.35,0,111.1,13.14,26.64,347.5
"2010-08-29 01:22:30",112786,3.682,23.77,1.044,0.138,23.28,110.3524,25.8,26.66,21.27,0,111.1,13.14,26.64,345.8
"2010-08-29 01:23:00",112787,3.84,22.84,0.952,0.128,23.29,110.353,25.8,26.65,21.4,0,111.1,13.14,26.64,344.8
"2010-08-29 01:23:30",112788,4.177,22.4,1.058,0.157,23.27,110.3549,25.81,26.67,21.55,0,111.1,13.14,26.65,344.4
"2010-08-29 01:24:00",112789,4.356,21.79,1.122,0.131,23.25,110.356,25.81,26.66,21.62,0,111.1,13.14,26.65,343.8
"2010-08-29 01:24:30",112790,4.299,18.98,1.155,0.14,23.2,110.3393,25.77,26.64,21.67,0,111.1,13.14,26.61,341.0
"2010-08-29 01:25:00",112791,4.156,17.76,1.202,0.234,23.16,110.3267,25.73,26.64,21.65,0,111.1,13.14,26.58,339.8
"2010-08-29 01:25:30",112792,3.728,17.05,1.458,0.438,23.13,110.3286,25.74,26.63,21.8,0,111.1,13.14,26.58,339.0
"2010-08-29 01:26:00",112793,2.591,13.72,2.915,0.687,23.11,110.327,25.73,26.61,22.07,0,111.1,13.15,26.58,335.7
"2010-08-29 01:26:30",112794,1.841,9.9,4.116,0.344,23.1,110.3038,25.68,26.59,22.15,0,111.1,13.15,26.52,331.9
"2010-08-29 01:27:00",112795,2.033,1.561,5.352,0.958,23.04,110.2968,25.66,26.57,21.86,0,111.1,13.14,26.50,323.6
"2010-08-29 01:27:30",112796,6.036,336.3,8.52,0.708,22.76,110.2804,25.62,26.56,22.58,0,111.1,13.14,26.46,298.3
"2010-08-29 01:28:00",112797,5.685,327.9,5.19,0.495,22.71,110.2375,25.5,26.48,22.89,0,111.1,13.15,26.35,289.9
"2010-08-29 01:28:30",112798,6.479,317,3.815,0.64,22.68,110.2001,25.41,26.4,23.04,0,111.1,13.15,26.25,279.0
"2010-08-29 01:29:00",112799,7.52,314.9,6.365,0.561,22.5,110.1736,25.34,26.33,23.4,0,111.1,13.15,26.18,276.9
"2010-08-29 01:29:30",112800,10.75,307,2.649,1.246,22.3,110.1371,25.25,26.27,24.08,0,111.1,13.15,26.09,269.0
"2010-08-29 01:30:00",112801,10.75,307.7,4.049,0.438,22.41,110.1118,25.18,26.21,23.88,0,111.1,13.15,26.02,269.7
"2010-08-29 01:30:30",112802,10.23,308.3,2.994,0.874,22.48,110.0952,25.14,26.18,23.73,0,111.1,13.15,25.98,270.3
"2010-08-29 01:31:00",112803,9.95,314,3.576,0.461,22.63,110.0656,25.06,26.11,23.58,0,111.1,13.14,25.90,276.0
"2010-08-29 01:31:30",112804,9.96,312.3,2.351,0.686,22.73,110.064,25.06,26.07,23.42,0,111.1,13.14,25.90,274.3
"2010-08-29 01:32:00",112805,10.99,312.2,1.76,0.371,22.78,110.0506,25.02,26.04,23.32,0,111.1,13.14,25.86,274.2
"2010-08-29 01:32:30",112806,10.87,315.8,2.421,0.344,22.9,110.0462,25.01,26.02,23.24,0,111.1,13.14,25.85,277.8
"2010-08-29 01:33:00",112807,10.61,314.9,3.021,0.541,22.95,110.0553,25.04,26.01,23.08,0,111.1,13.14,25.88,276.9
"2010-08-29 01:33:30",112808,10.67,312.6,5.717,0.428,22.87,110.0697,25.07,26,23.1,0,111.1,13.14,25.91,274.6
"2010-08-29 01:34:00",112809,8.51,316.4,2.851,1.024,22.9,110.0716,25.08,26,23.06,0,111.1,13.14,25.92,278.4
"2010-08-29 01:34:30",112810,9.45,322.4,1.973,0.494,23.02,110.0719,25.08,25.98,22.94,0,111.1,13.14,25.92,284.4
"2010-08-29 01:35:00",112811,9.7,327.9,3.484,0.753,22.91,110.0739,25.08,26,23.01,0,111.1,13.14,25.92,289.9
"2010-08-29 01:35:30",112812,9.58,327.4,2.4,0.593,22.99,110.0933,25.13,25.98,22.62,0,111.1,13.14,25.97,289.4
"2010-08-29 01:36:00",112813,9.06,328.2,4.139,0.411,22.95,110.1069,25.17,26.01,22.83,0,111.1,13.14,26.01,290.2
"2010-08-29 01:36:30",112814,9.12,329.6,3.363,0.543,22.94,110.1075,25.17,26.03,22.72,0,111.1,13.14,26.01,291.6
"2010-08-29 01:37:00",112815,9.56,327.3,1.668,0.472,22.87,110.1091,25.17,26.03,22.8,0,111.1,13.15,26.01,289.3
"2010-08-29 01:37:30",112816,10.14,327.1,1.533,0.539,22.97,110.1112,25.18,26.03,22.66,0,111.1,13.15,26.02,289.1
"2010-08-29 01:38:00",112817,10.2,323.1,1.788,0.422,22.89,110.1122,25.18,26.04,22.61,0,111.1,13.15,26.02,285.1
"2010-08-29 01:38:30",112818,9.54,328.2,3.901,0.371,22.95,110.1211,25.21,26.06,22.49,0,111.1,13.15,26.05,290.2
"2010-08-29 01:39:00",112819,9.66,332.5,3.672,0.268,23.06,110.1359,25.24,26.05,22.47,0,111.1,13.15,26.08,294.5
"2010-08-29 01:39:30",112820,9.59,328.8,4.017,0.658,23.04,110.1465,25.27,26.07,22.42,0,111.1,13.15,26.11,290.8
"2010-08-29 01:40:00",112821,9.91,325.7,3.292,0.571,23,110.1468,25.27,26.09,22.23,0,111.1,13.15,26.11,287.7
"2010-08-29 01:40:30",112822,9.59,328.5,3.126,0.519,23.01,110.148,25.27,26.11,22.15,0,111.1,13.15,26.11,290.5
"2010-08-29 01:41:00",112823,9.5,330.6,4.314,0.303,23.01,110.1528,25.29,26.1,22.14,0,111.1,13.15,26.13,292.6
"2010-08-29 01:41:30",112824,9.36,331.2,1.488,0.4,23.04,110.1689,25.33,26.13,22.01,0,111.1,13.15,26.17,293.2
"2010-08-29 01:42:00",112825,7.425,340.5,2.767,0.769,23.02,110.1767,25.35,26.15,22.12,0,111.1,13.15,26.19,302.5
"2010-08-29 01:42:30",112826,7.453,335.1,4.122,0.381,23.01,110.1821,25.36,26.17,22.22,0,111.1,13.15,26.20,297.1
"2010-08-29 01:43:00",112827,8.95,336.2,3.066,0.491,23.05,110.1821,25.36,26.16,22.19,0,111.1,13.15,26.20,298.2
"2010-08-29 01:43:30",112828,8.17,341.5,2.37,0.475,23.08,110.1821,25.36,26.19,22.15,0,111.1,13.15,26.20,303.5
"2010-08-29 01:44:00",112829,8.33,336.4,4.244,0.55,23.1,110.1835,25.37,26.19,22.13,0,111.1,13.15,26.21,298.4
"2010-08-29 01:44:30",112830,7.932,334.5,3.864,0.511,23.1,110.1888,25.38,26.22,22.16,0,111.1,13.15,26.22,296.5
"2010-08-29 01:45:00",112831,8.59,333.7,2.493,0.246,23.04,110.1992,25.41,26.22,21.87,0,111.1,13.15,26.25,295.7
"2010-08-29 01:45:30",112832,8.08,335.5,3.997,0.313,23.11,110.2118,25.44,26.23,22.03,0,111.1,13.15,26.28,297.5
"2010-08-29 01:46:00",112833,7.726,333.6,2.419,0.529,23.09,110.2158,25.45,26.25,22.05,0,111.1,13.15,26.29,295.6
"2010-08-29 01:46:30",112834,7.942,331.5,2.298,0.231,23.03,110.2158,25.45,26.26,21.77,0,111.1,13.15,26.29,293.5
"2010-08-29 01:47:00",112835,7.835,330.1,1.45,0.224,23.03,110.2158,25.45,26.28,21.66,0,111.1,13.15,26.29,292.1
"2010-08-29 01:47:30",112836,8.51,328.6,2.107,0.291,23,110.2158,25.45,26.29,21.72,0,111.1,13.15,26.29,290.6